Mandan, ND

9:25 PM CDT on August 18, 2017 (GMT -0500)
Mandan

Weather History for KY19 - November, 2012

Change the Weather History Date:

Thursday, November 15, 2012

  Actual Average (KBIS) Record (KBIS)
Temperature  
Mean Temperature 24 °F -  
Max Temperature 32 °F 39 °F 73 °F (1953)
Min Temperature 17 °F 17 °F -10 °F (1876)
Degree Days  
Heating Degree Days 40    
Moisture  
Dew Point 26 °F    
Average Humidity 93    
Maximum Humidity 100    
Minimum Humidity 80    
Precipitation  
Precipitation 0.00 in - - ()
Sea Level Pressure  
Sea Level Pressure 30.32 in    
Wind  
Wind Speed 11 mph (SW)    
Max Wind Speed 18 mph    
Max Gust Speed 20 mph    
Visibility 10 miles    
Events      
Averages and records for this station are not official NWS values.
T = Trace of Precipitation, MM = Missing Value Source: NWS Daily Summary

Daily Weather History Graph

Daily Weather History Graph

Search for Another Location

Airport or City:

Trip Planner

Search our weather history database for the weather conditions in past years. The results will help you decide how hot, cold, wet, or windy it might be!

Date:

Astronomy

Nov. 15, 2012 Rise Set
Actual Time 7:47 AM CST 5:09 PM CST
Civil Twilight 7:13 AM CST 5:42 PM CST
Nautical Twilight 6:37 AM CST 6:18 PM CST
Astronomical Twilight 6:01 AM CST 6:54 PM CST
Moon 9:49 AM CST (11/15) 6:58 PM CST (11/15)
Length of Visible Light 10h 28m
Length of Day
9h 22m
Waxing Crescent, 5% of the Moon is Illuminated
Nov 15
Waxing Crescent
Nov 20
First Quarter
Nov 28
Full
Dec 6
Last Quarter
Dec 13
New

Hourly Weather History & Observations

Time (CST) Temp. Windchill Dew Point Humidity Pressure Visibility Wind Dir Wind Speed Gust Speed Precip Events Conditions
12:15 AM 32.0 °F 21.6 °F 28.4 °F 87% 30.11 in 10.0 mi WNW 15.0 mph - N/A   Clear
12:35 AM 32.0 °F 21.6 °F 30.2 °F 93% 30.11 in 10.0 mi WNW 15.0 mph - N/A   Clear
12:55 AM 32.0 °F 21.2 °F 30.2 °F 93% 30.12 in 10.0 mi WNW 16.1 mph - N/A   Clear
1:15 AM 32.0 °F 21.6 °F 30.2 °F 93% 30.12 in 10.0 mi WNW 15.0 mph - N/A   Clear
1:35 AM 32.0 °F 21.2 °F 30.2 °F 93% 30.14 in 10.0 mi NW 16.1 mph - N/A   Clear
1:55 AM 32.0 °F 22.1 °F 28.4 °F 87% 30.14 in 10.0 mi NW 13.8 mph - N/A   Clear
2:15 AM 30.2 °F 19.3 °F 28.4 °F 93% 30.15 in 10.0 mi NW 15.0 mph - N/A   Clear
2:35 AM 30.2 °F 19.3 °F 28.4 °F 93% 30.17 in 10.0 mi NW 15.0 mph - N/A   Clear
2:55 AM 28.4 °F 17.5 °F 28.4 °F 100% 30.18 in 10.0 mi NW 13.8 mph - N/A   Clear
3:15 AM 28.4 °F 16.6 °F 28.4 °F 100% 30.19 in 10.0 mi NW 16.1 mph - N/A   Clear
3:35 AM 28.4 °F 15.8 °F 28.4 °F 100% 30.20 in 10.0 mi NW 18.4 mph - N/A   Clear
3:55 AM 28.4 °F 17.0 °F 28.4 °F 100% 30.21 in 10.0 mi NW 15.0 mph - N/A   Clear
4:15 AM 28.4 °F 16.6 °F 26.6 °F 93% 30.22 in 10.0 mi NW 16.1 mph - N/A   Clear
4:35 AM 26.6 °F 15.2 °F 26.6 °F 100% 30.23 in 10.0 mi NW 13.8 mph - N/A   Clear
4:55 AM 26.6 °F 15.7 °F 26.6 °F 100% 30.25 in 10.0 mi NW 12.7 mph - N/A   Clear
5:15 AM 26.6 °F 17.5 °F 24.8 °F 93% 30.26 in 10.0 mi NW 9.2 mph - N/A   Clear
5:35 AM 26.6 °F 17.5 °F 24.8 °F 93% 30.28 in 10.0 mi NW 9.2 mph - N/A   Clear
5:55 AM 23.0 °F 17.0 °F 23.0 °F 100% 30.29 in 10.0 mi NW 4.6 mph - N/A   Clear
6:15 AM 23.0 °F 13.1 °F 23.0 °F 100% 30.30 in 10.0 mi NNW 9.2 mph - N/A   Clear
6:35 AM 23.0 °F 13.9 °F 23.0 °F 100% 30.31 in 10.0 mi NNW 8.1 mph - N/A   Clear
6:55 AM 24.8 °F 15.3 °F 24.8 °F 100% 30.32 in 10.0 mi NW 9.2 mph - N/A   Clear
7:15 AM 19.4 °F 11.5 °F 19.4 °F 100% 30.32 in 10.0 mi West 5.8 mph - N/A   Clear
7:35 AM 19.4 °F - 19.4 °F 100% 30.33 in 9.0 mi Calm Calm - N/A   Clear
7:55 AM 19.4 °F 12.8 °F 19.4 °F 100% 30.35 in 6.0 mi West 4.6 mph - N/A   Clear
8:15 AM 17.6 °F 9.3 °F 17.6 °F 100% 30.35 in 5.0 mi West 5.8 mph - N/A   Clear
8:35 AM 17.6 °F 8.2 °F 17.6 °F 100% 30.36 in 7.0 mi West 6.9 mph - N/A   Clear
8:55 AM 19.4 °F 9.5 °F 19.4 °F 100% 30.37 in 9.0 mi NW 8.1 mph - N/A   Clear
9:15 AM 23.0 °F 14.7 °F 23.0 °F 100% 30.38 in 10.0 mi NW 6.9 mph - N/A   Clear
9:35 AM 24.8 °F 16.9 °F 24.8 °F 100% 30.39 in 10.0 mi NW 6.9 mph - N/A   Clear
9:55 AM 26.6 °F 19.1 °F 24.8 °F 93% 30.39 in 10.0 mi NW 6.9 mph - N/A   Clear
10:15 AM 26.6 °F 20.0 °F 24.8 °F 93% 30.40 in 10.0 mi NW 5.8 mph - N/A   Clear
10:35 AM 28.4 °F 22.2 °F 26.6 °F 93% 30.41 in 10.0 mi NNW 5.8 mph - N/A   Clear
10:55 AM 28.4 °F 23.3 °F 26.6 °F 93% 30.41 in 8.0 mi North 4.6 mph - N/A   Clear
11:15 AM 28.4 °F - 26.6 °F 93% 30.42 in 10.0 mi Calm Calm - N/A   Clear
11:35 AM 28.4 °F 24.6 °F 26.6 °F 93% 30.42 in 10.0 mi South 3.5 mph - N/A   Clear
11:55 AM 30.2 °F - 26.6 °F 86% 30.41 in 10.0 mi Calm Calm - N/A   Clear
12:15 PM 30.2 °F 26.7 °F 26.6 °F 86% 30.41 in 10.0 mi SSE 3.5 mph - N/A   Clear
12:35 PM 30.2 °F - 26.6 °F 86% 30.41 in 10.0 mi Calm Calm - N/A   Clear
12:55 PM 32.0 °F - 26.6 °F 80% 30.40 in 10.0 mi Calm Calm - N/A   Clear
1:15 PM 32.0 °F 26.4 °F 26.6 °F 80% 30.41 in 10.0 mi SSE 5.8 mph - N/A   Clear
1:35 PM 32.0 °F 24.8 °F 26.6 °F 80% 30.40 in 10.0 mi SSE 8.1 mph - N/A   Clear
1:55 PM 32.0 °F 24.8 °F 26.6 °F 80% 30.39 in 10.0 mi South 8.1 mph - N/A   Clear
2:15 PM 32.0 °F 25.6 °F 26.6 °F 80% 30.39 in 10.0 mi South 6.9 mph - N/A   Clear
2:35 PM 32.0 °F 26.4 °F 28.4 °F 87% 30.39 in 10.0 mi South 5.8 mph - N/A   Clear
2:55 PM 32.0 °F 24.8 °F 28.4 °F 87% 30.38 in 10.0 mi South 8.1 mph - N/A   Clear
3:15 PM 32.0 °F 24.2 °F 28.4 °F 87% 30.38 in 10.0 mi South 9.2 mph - N/A   Clear
3:35 PM 32.0 °F 24.2 °F 28.4 °F 87% 30.39 in 10.0 mi South 9.2 mph - N/A   Clear
3:55 PM 32.0 °F 24.2 °F 28.4 °F 87% 30.39 in 10.0 mi South 9.2 mph - N/A   Clear
4:15 PM 32.0 °F 25.6 °F 28.4 °F 87% 30.39 in 10.0 mi South 6.9 mph - N/A   Clear
4:35 PM 30.2 °F 22.6 °F 28.4 °F 93% 30.39 in 10.0 mi SSE 8.1 mph - N/A   Clear
4:55 PM 28.4 °F 23.3 °F 26.6 °F 93% 30.38 in 10.0 mi South 4.6 mph - N/A   Clear
5:15 PM 26.6 °F 20.0 °F 26.6 °F 100% 30.38 in 10.0 mi SE 5.8 mph - N/A   Clear
5:35 PM 26.6 °F 18.2 °F 26.6 °F 100% 30.37 in 10.0 mi SE 8.1 mph - N/A   Clear
5:55 PM 26.6 °F 18.2 °F 24.8 °F 93% 30.36 in 10.0 mi SSE 8.1 mph - N/A   Clear
6:15 PM 26.6 °F 17.5 °F 26.6 °F 100% 30.36 in 10.0 mi SSE 9.2 mph - N/A   Clear
6:35 PM 26.6 °F 16.8 °F 26.6 °F 100% 30.36 in 10.0 mi South 10.4 mph - N/A   Clear
6:55 PM 26.6 °F 16.8 °F 24.8 °F 93% 30.36 in 10.0 mi South 10.4 mph - N/A   Clear
7:15 PM 26.6 °F 16.2 °F 24.8 °F 93% 30.36 in 10.0 mi SSE 11.5 mph - N/A   Clear
7:35 PM 26.6 °F 16.2 °F 24.8 °F 93% 30.36 in 10.0 mi SSE 11.5 mph - N/A   Clear
7:55 PM 26.6 °F 16.8 °F 24.8 °F 93% 30.35 in 10.0 mi SSE 10.4 mph - N/A   Clear
8:15 PM 26.6 °F 16.2 °F 24.8 °F 93% 30.35 in 10.0 mi South 11.5 mph - N/A   Clear
8:35 PM 26.6 °F 16.8 °F 24.8 °F 93% 30.35 in 10.0 mi South 10.4 mph - N/A   Clear
8:55 PM 24.8 °F 14.0 °F 24.8 °F 100% 30.35 in 10.0 mi South 11.5 mph - N/A   Clear
9:35 PM 28.4 °F 17.5 °F 24.8 °F 86% 30.35 in 10.0 mi South 13.8 mph - N/A   Clear
9:55 PM 28.4 °F 18.0 °F 24.8 °F 86% 30.35 in 10.0 mi South 12.7 mph 19.6 mph N/A   Clear
10:15 PM 28.4 °F 19.1 °F 24.8 °F 86% 30.35 in 10.0 mi South 10.4 mph - N/A   Clear
10:35 PM 26.6 °F 17.5 °F 24.8 °F 93% 30.35 in 10.0 mi South 9.2 mph - N/A   Clear
10:55 PM 26.6 °F 18.2 °F 23.0 °F 86% 30.34 in 10.0 mi South 8.1 mph - N/A   Clear
11:15 PM 28.4 °F 19.1 °F 24.8 °F 86% 30.33 in 10.0 mi SSE 10.4 mph - N/A   Clear
11:35 PM 26.6 °F 17.5 °F 24.8 °F 93% 30.33 in 10.0 mi SSE 9.2 mph - N/A   Clear
11:55 PM 28.4 °F 19.7 °F 23.0 °F 80% 30.32 in 10.0 mi SE 9.2 mph - N/A   Clear